Location: *
(38.8181°S, 103.0319°E)
Time: 19:12:09
(UTC+00:00)

Daily predictions for brighter satellites

Satellite Brightness Start Highest point End
(mag) Time Altitude Azimuth Time Altitude Azimuth Time Altitude Azimuth
ATLAS 2A CENTAUR R/B 4.4 12:02:08 10° WNW 12:07:32 39° NNE 12:18:00 22° ENE
Cosmos 2278 Rocket 2.3 12:04:55 10° N 12:09:49 54° NE 12:09:49 54° NE
Lacrosse 5 3.7 12:10:39 10° SSW 12:12:46 19° S 12:12:46 19° S
Cosmos 923 Rocket 4.1 12:11:41 10° SSW 12:17:04 76° WNW 12:20:28 23° N
DELTA 2 R/B (1) 3.4 12:12:34 10° W 12:18:16 87° NNW 12:18:29 83° NE
Meteor 1-18 Rocket 4.4 12:12:53 10° SSW 12:18:42 75° W 12:24:33 10° N
Okean 2 Rocket 3.5 12:14:24 10° NNW 12:18:45 59° W 12:19:15 55° SW
CZ-4 R/B 3.7 12:18:17 10° SSW 12:21:23 22° WSW 12:24:27 10° WNW
Cosmos 2315 Rocket 3.8 12:15:25 10° S 12:21:43 83° E 12:27:58 10° N
COSMOS 2406 4.1 12:22:04 10° SSW 12:27:40 49° WNW 12:33:12 10° N
Cosmos 1844 Rocket 4.4 12:45:47 10° WNW 12:50:36 28° WSW 12:52:57 21° SSW
CZ-4C R/B 3.2 13:04:13 10° NW 13:11:04 63° WNW 13:11:04 63° WNW
CZ-4C R/B 4.4 20:39:32 18° E 20:39:32 18° E 20:41:08 10° ENE
Cosmos 2219 Rocket 4.2 20:42:38 24° ESE 20:42:38 24° ESE 20:45:38 10° SE
Cosmos 2278 Rocket 4.2 21:03:43 20° SSE 21:05:33 23° SE 21:10:00 10° ENE
BREEZE-M DEB (TANK) 4.2 21:06:14 81° SSW 21:06:40 84° SSE 21:11:47 10° ENE
USA 234 3.5 21:02:42 10° SE 21:09:12 64° NE 21:09:12 64° NE
COSMOS 2428 4.3 21:25:52 24° SSE 21:25:52 24° SSE 21:28:03 10° SSE
CZ-4 R/B 4.3 21:30:10 10° E 21:32:30 15° ESE 21:34:48 10° SSE
Lacrosse 5 rocket 4.4 21:31:50 10° NE 21:32:56 11° ENE 21:34:01 10° ENE
Ariane Rocket 4.1 21:31:23 10° NE 21:36:11 42° ESE 21:39:25 19° S
NOSS 3-1 (C) 4.2 21:45:08 49° SW 21:45:08 49° SW 21:52:06 10° SSE
Cosmos 1844 Rocket 2.9 21:46:00 57° N 21:46:00 57° N 21:50:33 10° NNE
Cosmos 1092 Rocket 3.8 21:50:52 52° SSW 21:52:27 73° W 21:58:40 10° N
Cosmos 2208 Rocket 4.5 21:48:52 10° N 21:54:09 62° ENE 21:59:34 10° SSE
Cosmos 2333 Rocket 2.0 21:54:37 58° NW 21:55:48 83° WSW 22:01:32 10° SSE
Cosmos 1634 Rocket 3.8 21:55:11 10° NNW 22:01:21 76° W 22:07:40 10° S
Cosmos 2195 Rocket 4.4 21:56:11 10° S 22:02:31 90° E 22:08:42 10° N
Cosmos 1655 Rocket 4.3 22:00:03 10° S 22:06:27 68° E 22:12:49 10° NNE
Meteor 2-20 Rocket 4.3 22:02:15 10° S 22:08:25 80° W 22:14:30 10° N
Cosmos 2279 Rocket 4.2 22:02:18 10° N 22:08:33 73° E 22:14:53 10° S
CZ-2C R/B 4.2 22:04:20 10° SSE 22:08:47 59° E 22:13:13 10° N
ATLAS 2AS CENTAUR R/B 3.1 22:07:09 10° NNW 22:13:27 55° ENE 22:19:24 10° SE
SMAP 4.2 22:09:08 10° NE 22:13:34 44° ESE 22:18:04 10° S
NOSS 3-1 (A) 4.4 22:13:15 37° W 22:15:14 43° SW 22:22:23 10° SSE
Cosmos 1980 3.6 22:10:45 12° NNW 22:16:00 73° WSW 22:21:45 10° SSE
Cosmos 1733 Rocket 3.1 22:17:14 58° WNW 22:17:14 58° WNW 22:21:17 10° N
Delta 2 Rocket 4.4 22:17:32 27° N 22:17:32 27° N 22:19:59 10° NE
NOSS 0 Rocket 3.8 22:11:28 12° NNW 22:17:11 68° WSW 22:23:29 10° SSE
IDEFIX/ARIANE 42P 2.5 22:13:21 10° NNE 22:18:37 87° WNW 22:23:56 10° SSW
CZ-2C R/B 2.3 22:18:23 10° NNE 22:23:15 88° WNW 22:28:22 10° SSW
YAOGAN 1 4.0 22:19:46 10° NE 22:23:49 38° ESE 22:27:55 10° S
Cosmos 1908 Rocket 3.8 22:20:06 10° S 22:24:36 68° E 22:28:57 10° NNE
Cosmos 2219 Rocket 2.6 22:24:28 38° WSW 22:24:37 38° WSW 22:29:54 10° S
CZ-4C R/B 2.6 22:24:48 36° WNW 22:24:56 36° WNW 22:29:33 10° N
EXPRESS MD2 4.3 22:27:10 32° SSW 22:27:27 33° SSW 22:32:51 10° SE
Meteor 2-10 Rocket 3.5 22:22:55 10° NNW 22:28:11 77° W 22:33:47 10° S
SL-16 R/B 2.8 22:28:05 10° N 22:33:39 61° ENE 22:39:16 10° SSE
Cosmos 1844 4.3 22:33:10 32° WSW 22:34:32 37° WNW 22:39:48 10° N
H-2A R/B 4.0 22:33:48 12° NNW 22:35:59 18° N 22:41:19 10° NE
Cosmos 2237 Rocket 2.3 22:30:37 10° NW 22:36:07 54° WSW 22:41:43 10° SSE
Cosmos 1898 Rocket 4.1 22:32:44 10° S 22:38:01 58° ESE 22:43:11 10° NNE
CSL-04 Rocket 3.7 22:33:07 10° N 22:38:18 53° W 22:43:38 10° SSW
Timation 1 Rocket 4.3 22:34:05 14° SSW 22:39:29 82° WNW 22:45:30 10° NNE
GRACE-1 3.7 22:38:49 31° S 22:40:01 89° W 22:42:48 10° N
GRACE-2 3.7 22:39:08 28° S 22:40:27 90° SW 22:43:15 10° N
Cosmos 1782 Rocket 4.1 22:38:15 10° S 22:42:39 61° E 22:46:58 10° NNE
Cosmos 2026 Rocket 4.2 22:37:38 10° SSW 22:43:47 49° W 22:49:54 10° NNW
Okean 1-7 3.5 22:39:44 10° N 22:43:59 63° E 22:48:21 10° SSE
GPS 2-05 Rocket1 3.7 22:43:03 30° WNW 22:44:16 42° N 22:47:39 10° ENE
Sich 1 Rocket 3.5 22:42:11 10° SSW 22:46:37 69° W 22:51:01 10° N
CORIOLIS 4.2 22:42:56 10° NNE 22:48:25 86° ESE 22:53:58 10° SSW
Atlas 2A Centaur Rocket 4.1 22:46:33 10° NW 22:49:16 20° NNE 22:55:17 10° ENE
Cosmos 2278 Rocket 2.4 22:45:37 17° SW 22:49:55 51° WNW 22:55:24 10° N
USA 234 3.8 22:45:56 10° SE 22:52:02 41° SSW 22:56:35 17° W
SJ-12 4.3 22:50:21 10° N 22:54:16 41° W 22:57:52 12° SSW
Meteor 1-26 Rocket 4.2 22:50:09 10° NNW 22:55:36 56° WSW 23:01:08 10° S
USA 116 4.4 22:52:14 10° S 22:57:38 68° WSW 23:02:38 10° NNW
Meteor 1-14 Rocket 4.2 22:58:02 10° SSW 23:03:39 66° W 23:09:08 10° N
Cosmos 2344 4.3 22:52:18 10° SW 23:04:42 77° WNW 23:13:42 10° NNE
MSX 4.0 22:59:31 10° N 23:05:10 52° W 23:10:53 10° SSW
CZ-4 R/B 1.8 23:03:11 10° N 23:07:09 43° W 23:11:06 10° SSW
Cosmos 1346 Rocket 3.7 23:04:04 10° N 23:07:53 51° E 23:11:45 10° SSE
Lacrosse 5 rocket 1.1 23:07:43 10° NW 23:11:41 72° SW 23:15:29 10° SE
Cosmos 1484 Rocket 2.7 23:08:55 10° N 23:12:37 59° W 23:16:23 10° SSW
Cosmos 1703 Rocket 4.1 23:09:10 10° NNW 23:13:22 39° WSW 23:17:39 10° S
Cosmos 332 Rocket 3.8 23:09:24 10° NNW 23:14:19 77° WSW 23:19:19 10° SSE
Ariane Rocket 4.2 23:11:24 10° NW 23:15:16 22° W 23:19:11 10° SW
Cosmos 1937 Rocket 3.6 23:11:07 10° SSW 23:16:30 88° WNW 23:21:51 10° NNE
Cosmos 2298 Rocket 4.0 23:11:09 10° SSW 23:16:32 76° WNW 23:21:52 10° N
Meteor 1-25 Rocket 4.3 23:13:20 10° SSW 23:19:10 66° W 23:24:52 10° N
Cosmos 1633 3.3 23:21:43 10° S 23:25:20 57° E 23:28:55 10° NNE
Cosmos 2369 Rocket 4.3 23:21:23 10° S 23:25:56 24° SE 23:30:25 10° ENE
Cosmos 2285 Rocket 4.3 23:20:02 10° N 23:26:23 78° ENE 23:32:52 10° SSE
ATLAS 3B R/B 3.0 23:25:03 10° SSW 23:32:27 90° SE 23:40:02 10° NNE
Cosmos 1782 3.1 23:29:55 10° NNW 23:33:51 47° W 23:37:52 10° S
Cosmos 1174 3.4 23:30:54 10° SSW 23:34:04 68° ESE 23:37:00 10° NE
FREGAT/IRIS 4.4 23:31:43 10° NE 23:34:34 34° ESE 23:37:26 10° S
COSMO-SKYMED 1 2.7 23:33:32 10° S 23:37:51 54° WSW 23:42:06 10° NNW
Cosmos 2266 Rocket 4.1 23:33:11 10° SSW 23:39:03 51° W 23:44:54 10° NNW
Cosmos 1241 Rocket 4.4 23:34:07 10° NW 23:40:16 73° WSW 23:46:30 10° SSE
Cosmos 2333 Rocket 3.9 23:38:26 10° WSW 23:40:59 13° SW 23:43:32 10° SSW
Cosmos 2150 Rocket 4.3 23:36:06 10° SSW 23:41:09 50° WNW 23:46:11 10° N
